Home > Weather > Newman > Past weeks

Flag for Australia Past Weather in Newman, Western Australia, Australia — Yesterday and Last 2 Weeks

Now
69 °F

Mild.


Feels Like: 69 °F
Forecast: 51 / 82 °F
Wind: 6 mph from Northeast

Location: Newman Aerodrome

Current Time: Jul 29, 2016 at 10:19:52 AM

Latest Report: Jul 29, 2016 at 9:00 AM


Visibility: N/A

Pressure: 30.19 "Hg (28.33 "Hg at 546m altitude)

Humidity: 25%

Dew Point: 32 °F

Location of NewmanLocation

Past Weather in Newman — Graph

°F

Newman Temperature Yesterday

Maximum temperature yesterday: 78 °F (at 3:00 PM)
Minimum temperature yesterday: 45 °F (at 6:00 AM)
Average temperature yesterday: 63 °F

High & Low Weather Summary for the Past Weeks

 TemperatureHumidityPressure
High79 °F (Jul 20, 3:00 PM)94% (Jul 24, 5:00 AM)30.26 "Hg (Jul 24, 5:00 AM)
Low37 °F (Jul 15, 6:00 AM)15% (Jul 28, 2:00 PM)29.88 "Hg (Jul 20, 3:00 PM)
Average59 °F54%30.10 "Hg
* Reported Jul 14 9:00 AM — Jul 29 9:00 AM, Newman, Weather by CustomWeather, © 2016

Note: Actual official high and low records may vary slightly from our data, if they occured in-between our weather recording intervals... More about our weather records

Advertising

Newman Weather History for the Previous 24 Hours

Scroll right to see more
 ConditionsComfort  
Time TempWeatherWind HumidityBarometerVisibility
9:00 AM
Fri, Jul 29
69 °FMild.6 mph25%30.19 "HgN/A
8:00 AM61 °FRefreshingly cool.5 mph35%30.18 "HgN/A
6:00 AM50 °FCool.No wind68%30.14 "HgN/A
5:00 AM50 °FCool.No wind71%30.14 "HgN/A
3:00 AM55 °FOvercast.2 mph62%30.13 "HgN/A
2:00 AM56 °FCool.No wind61%30.14 "HgN/A
12:00 AM62 °FOvercast.No wind48%30.14 "HgN/A
11:00 PM
Thu, Jul 28
62 °FMild.No wind45%30.16 "HgN/A
9:00 PM68 °FOvercast.3 mph30%30.17 "HgN/A
8:00 PM69 °FMild.5 mph27%30.16 "HgN/A
6:00 PM73 °FPassing clouds.3 mph22%30.14 "HgN/A
5:00 PM77 °FPleasantly warm.6 mph17%30.12 "HgN/A
3:00 PM78 °FPleasantly warm.8 mph15%30.11 "HgN/A
2:00 PM78 °FPleasantly warm.13 mph15%30.11 "HgN/A
12:00 PM74 °FMild.13 mph16%30.18 "HgN/A
11:00 AM72 °FMild.14 mph17%30.21 "HgN/A
Weather by CustomWeather, © 2016

See weather overviewHow to use our weather pages